Home > Weather > Meissen > Past weeks

Flag for Germany Weather for the Past 2 Weeks in Meissen, Saxony, Germany

Now
37 °F

Passing clouds.


Feels Like: 30 °F
Forecast: 34 / 43 °F
Wind: 12 mph from West

Location: Dresden-Klotzsche

Current Time: Feb 11, 2016 at 4:39:00 AM

Latest Report: Feb 11, 2016 at 4:20 AM


Visibility: N/A

Pressure: 29.47 "Hg

Humidity: 87%

Dew point: 34 °F

Location of MeissenLocation

Historic Weather in Meissen — Graph

°F

Meissen Temperature Yesterday

Maximum temperature yesterday: 46 °F (at 12:20 AM)
Minimum temperature yesterday: 36 °F (at 7:20 PM)
Average temperature yesterday: 40 °F

High & Low Weather Summary for the Past Weeks

 TemperatureHumidityPressure
High55 °F (Jan 27, 1:50 PM)100% (Feb 1, 3:20 AM)30.30 "Hg (Feb 1, 3:20 AM)
Low32 °F (Jan 29, 2:50 AM)46% (Jan 29, 11:50 AM)29.09 "Hg (Feb 9, 10:20 PM)
Average43 °F73%29.86 "Hg
* Reported Jan 27 3:20 AM — Feb 11 3:50 AM, Meissen, Weather by CustomWeather, © 2016

Note: Actual official high and low records may vary slightly from our data, if they occured in-between our weather recording intervals... More about our weather records

Advertising

Meissen Weather History for the Previous 24 Hours

 ConditionsComfort  
Time TempWeatherWind HumidityBarometerVisibility
3:50 AM
Thu, Feb 11
37 °FPassing clouds.10 mph87%29.47 "HgN/A
3:20 AM37 °FPassing clouds.12 mph87%29.47 "HgN/A
2:50 AM37 °FPartly cloudy.12 mph87%29.45 "HgN/A
2:20 AM37 °FPartly cloudy.12 mph87%29.45 "HgN/A
1:50 AM37 °FSprinkles. Partly cloudy.10 mph87%29.45 "HgN/A
1:20 AM37 °FPartly cloudy.9 mph87%29.45 "HgN/A
12:50 AM37 °FSprinkles. Partly cloudy.14 mph87%29.45 "HgN/A
12:20 AM37 °FPassing clouds.9 mph81%29.42 "HgN/A
11:50 PM
Wed, Feb 10
37 °FPassing clouds.9 mph81%29.42 "HgN/A
10:50 PM37 °FPassing clouds.10 mph87%29.42 "HgN/A
10:20 PM37 °FLight rain. Partly cloudy.10 mph87%29.42 "HgN/A
9:50 PM37 °FLight rain. Partly cloudy.10 mph87%29.42 "HgN/A
9:20 PM37 °FLight rain. Partly cloudy.8 mph87%29.39 "HgN/A
8:50 PM37 °FPartly cloudy.7 mph87%29.39 "HgN/A
8:20 PM37 °FLight rain. Passing clouds.9 mph81%29.39 "HgN/A
7:50 PM37 °FLight rain. Clear.9 mph81%29.39 "HgN/A
7:20 PM36 °FPassing clouds.8 mph93%29.39 "HgN/A
6:50 PM37 °FSprinkles. Passing clouds.6 mph81%29.39 "HgN/A
6:20 PM37 °FSprinkles. Partly cloudy.10 mph81%29.39 "HgN/A
5:50 PM41 °FPartly cloudy.9 mph66%29.36 "HgN/A
5:20 PM41 °FPassing clouds.9 mph61%29.36 "HgN/A
4:50 PM41 °FPartly sunny.7 mph61%29.36 "HgN/A
4:20 PM41 °FPartly sunny.9 mph61%29.36 "HgN/A
3:50 PM41 °FPartly sunny.13 mph61%29.33 "HgN/A
3:20 PM41 °FPartly sunny.10 mph61%29.33 "HgN/A
2:50 PM43 °FPartly sunny.14 mph57%29.33 "HgN/A
2:20 PM45 °FScattered clouds.17 mph53%29.33 "HgN/A
1:50 PM43 °FScattered clouds.16 mph53%29.33 "HgN/A
1:20 PM43 °FScattered clouds.12 mph61%29.33 "HgN/A
12:50 PM43 °FQuite cool.14 mph57%29.33 "HgN/A
12:20 PM43 °FPartly sunny.12 mph57%29.33 "HgN/A
11:50 AM41 °FPartly sunny.12 mph61%29.33 "HgN/A
11:20 AM41 °FSunny.9 mph61%29.36 "Hg10 mi
10:50 AM41 °FPassing clouds.10 mph66%29.36 "HgN/A
10:20 AM39 °FSunny.9 mph70%29.33 "Hg10 mi
9:50 AM39 °FSunny.9 mph70%29.33 "Hg10 mi
9:20 AM39 °FSunny.9 mph70%29.33 "Hg10 mi
8:50 AM37 °FSunny.8 mph75%29.33 "Hg10 mi
8:20 AM37 °FPassing clouds.6 mph70%29.30 "HgN/A
7:50 AM37 °FSunny.5 mph70%29.30 "Hg10 mi
7:20 AM37 °FClear.5 mph70%29.30 "Hg10 mi
6:50 AM37 °FClear.8 mph70%29.30 "Hg10 mi
6:20 AM39 °FClear.9 mph65%29.27 "Hg10 mi
5:50 AM39 °FPassing clouds.9 mph65%29.27 "HgN/A
5:20 AM39 °FPassing clouds.10 mph65%29.27 "HgN/A
4:20 AM39 °FPassing clouds.9 mph70%29.27 "HgN/A
Weather by CustomWeather, © 2016

See weather overviewHow to use our weather pages